Location: Debolt
(55.2626°N, 118.0981°W)
Time: 04:32:11
(UTC+00:00)

O/OREOS (USA 219) - Visible Passes

Search period start: 07 December 2023 00:00
Search period end: 17 December 2023 00:00
Orbit: 621 x 646 km, 72.0° (Epoch: 22 May)

Date Brightness Start Highest point End Pass type
(mag) Time Alt. Az. Time Alt. Az. Time Alt. Az.
07 Dec ? 13:39:45 10° N 13:42:22 15° NNE 13:45:01 10° ENE visible
08 Dec ? 12:24:01 10° NNE 12:24:01 10° NNE 12:24:09 10° NNE visible
08 Dec ? 14:01:32 10° NNW 14:04:58 21° NE 14:08:24 10° E visible
09 Dec ? 12:45:45 12° N 12:46:33 12° NNE 12:48:23 10° NE visible
09 Dec ? 14:23:24 10° NNW 14:27:25 31° NE 14:31:27 10° ESE visible
10 Dec ? 13:07:29 13° N 13:09:16 16° NNE 13:12:02 10° ENE visible
10 Dec ? 14:45:20 10° NNW 14:49:44 50° NE 14:54:09 10° SE visible
11 Dec ? 13:29:15 14° N 13:31:50 22° NE 13:35:22 10° E visible
11 Dec ? 15:07:21 10° NNW 15:11:54 87° ENE 15:16:27 10° SSE visible
12 Dec ? 12:13:35 13° NNE 12:13:35 13° NNE 12:15:26 10° NE visible
12 Dec ? 13:51:01 15° NNW 13:54:17 33° NE 13:58:23 10° ESE visible
13 Dec ? 12:35:23 16° NNE 12:36:09 16° NNE 12:39:02 10° ENE visible
13 Dec ? 14:12:50 14° NNW 14:16:34 54° NE 14:21:01 10° SE visible
14 Dec ? 12:57:12 20° N 12:58:43 23° NE 13:02:20 10° E visible
14 Dec ? 14:34:40 13° NNW 14:38:42 87° WSW 14:43:16 10° SSE visible
15 Dec ? 11:41:37 12° NE 11:41:37 12° NE 11:42:29 10° NE visible
15 Dec ? 13:19:04 23° N 13:21:08 35° NE 13:25:18 10° ESE visible
15 Dec ? 14:56:32 11° NW 15:00:42 47° WSW 15:05:03 10° S visible
16 Dec ? 12:03:30 17° NE 12:03:30 17° NE 12:06:03 10° ENE visible
16 Dec ? 13:40:58 26° NNW 13:43:24 58° NE 13:47:53 10° SE visible
16 Dec ? 15:18:48 10° NW 15:22:31 26° WSW 15:26:16 10° SSW visible
